Central Park, NY

2:14 PM EDT on June 25, 2017 (GMT -0400)
Central Park

Weather History for KNYC - March, 2013

Change the Weather History Date:

Thursday, March 28, 2013

  Actual Average Record
Temperature  
Mean Temperature 44 °F 46 °F  
Max Temperature 51 °F 54 °F 84 °F (1945)
Min Temperature 37 °F 39 °F 13 °F (1923)
Degree Days  
Heating Degree Days 21 19  
Month to date heating degree days 715 645  
Since 1 July heating degree days 4088 4167  
Cooling Degree Days 0 0  
Month to date cooling degree days 0 0  
Year to date cooling degree days 0 0  
Moisture  
Dew Point 28 °F    
Average Humidity 56    
Maximum Humidity 70    
Minimum Humidity 42    
Precipitation  
Precipitation T in 0.15 in 2.98 in (2005)
Month to date precipitation 2.82 3.90  
Year to date precipitation 9.83 10.64  
Snow  
Snow 0.00 in 0.00 in 1.50 in (1984)
Month to date snowfall 7.3 3.7  
Since 1 July snowfall 26.1 25.0  
Snow Depth 0.00 in    
Sea Level Pressure  
Sea Level Pressure 30.01 in    
Wind  
Wind Speed 6 mph (NW)    
Max Wind Speed 13 mph    
Max Gust Speed 23 mph    
Visibility 10 miles    
Events      
T = Trace of Precipitation, MM = Missing Value Source: NWS Daily Summary

Daily Weather History Graph

Daily Weather History Graph

Search for Another Location

Airport or City:

Trip Planner

Search our weather history database for the weather conditions in past years. The results will help you decide how hot, cold, wet, or windy it might be!

Date:

Astronomy

Mar. 28, 2013 Rise Set
Actual Time 6:45 AM EDT 7:16 PM EDT
Civil Twilight 6:18 AM EDT 7:44 PM EDT
Nautical Twilight 5:45 AM EDT 8:16 PM EDT
Astronomical Twilight 5:12 AM EDT 8:50 PM EDT
Moon 9:06 PM EDT (3/28) 7:11 AM EDT (3/28)
Length of Visible Light 13h 26m
Length of Day
12h 31m
Full, 98% of the Moon is Illuminated
Mar 28
Full
Apr 3
Last Quarter
Apr 10
New
Apr 18
First Quarter
Apr 25
Full

Hourly Weather History & Observations

Time (EDT) Temp. Windchill Dew Point Humidity Pressure Visibility Wind Dir Wind Speed Gust Speed Precip Events Conditions
12:51 AM 39.9 °F - 28.0 °F 63% 29.98 in 10.0 mi North - - N/A   Clear
1:51 AM 39.0 °F 36.8 °F 28.0 °F 65% 29.97 in 10.0 mi Variable 3.5 mph - N/A   Clear
2:51 AM 39.0 °F 35.7 °F 28.0 °F 65% 29.96 in 10.0 mi Variable 4.6 mph - N/A   Clear
3:51 AM 39.0 °F - 28.0 °F 65% 29.96 in 10.0 mi Calm Calm - N/A   Clear
4:51 AM 37.9 °F 34.4 °F 27.0 °F 65% 29.96 in 10.0 mi Variable 4.6 mph - N/A   Clear
5:51 AM 37.9 °F - 28.0 °F 68% 29.96 in 10.0 mi North - - N/A   Clear
6:51 AM 37.9 °F 35.5 °F 28.0 °F 68% 29.97 in 10.0 mi Variable 3.5 mph - N/A   Clear
7:51 AM 37.9 °F 32.7 °F 28.0 °F 68% 29.99 in 10.0 mi NW 6.9 mph - N/A   Clear
8:51 AM 41.0 °F 36.4 °F 27.0 °F 57% 29.99 in 10.0 mi Variable 6.9 mph - N/A   Clear
9:51 AM 44.1 °F 39.0 °F 27.0 °F 51% 29.99 in 10.0 mi NW 9.2 mph - N/A   Clear
10:51 AM 46.9 °F - 25.0 °F 42% 30.00 in 10.0 mi Variable 6.9 mph - N/A   Mostly Cloudy
11:51 AM 46.0 °F 43.9 °F 26.1 °F 46% 30.00 in 10.0 mi Variable 4.6 mph - N/A   Overcast
12:51 PM 48.9 °F - 26.1 °F 41% 30.00 in 10.0 mi NE 8.1 mph - N/A   Mostly Cloudy
1:51 PM 48.0 °F - 28.0 °F 46% 30.00 in 10.0 mi Variable 3.5 mph - N/A   Mostly Cloudy
2:51 PM 48.0 °F - 28.0 °F 46% 30.00 in 10.0 mi Variable 6.9 mph - N/A   Overcast
3:51 PM 48.9 °F - 28.0 °F 44% 30.00 in 10.0 mi Variable 5.8 mph - N/A   Overcast
4:51 PM 46.0 °F 43.1 °F 30.9 °F 56% 30.01 in 10.0 mi WNW 5.8 mph - 0.00 in   Overcast
5:51 PM 48.0 °F - 28.9 °F 48% 30.02 in 10.0 mi North 10.4 mph - 0.00 in   Overcast
6:51 PM 46.9 °F - 28.9 °F 50% 30.04 in 10.0 mi North - - 0.00 in   Overcast
7:51 PM 46.9 °F - 28.0 °F 48% 30.06 in 10.0 mi Variable 4.6 mph - N/A   Overcast
8:51 PM 46.9 °F - 28.0 °F 48% 30.08 in 10.0 mi Variable 5.8 mph - N/A   Overcast
9:51 PM 46.0 °F 41.9 °F 28.0 °F 50% 30.10 in 10.0 mi NW 8.1 mph 21.9 mph N/A   Scattered Clouds
10:51 PM 45.0 °F 40.1 °F 28.0 °F 52% 30.10 in 10.0 mi NW 9.2 mph - N/A   Overcast
11:51 PM 44.1 °F 40.1 °F 28.0 °F 53% 30.11 in 10.0 mi NW 6.9 mph - N/A   Mostly Cloudy